Vertical_Velocity
0 -0 -1 -1 -0 -1 1 1 -1 -0 0 -0 -1 -1 -1 -2 -2 -1 -3 -2 -4 -2 -0 -0 -0 -2 -1 -2 1 3 -1 -0 1 -2 3 -1 -0 2 1 -1 3 -12 16 13 5 -8 -2
-1 1 1 -1 -0 0 -0 1 1 -1 -1 -0 -1 -2 -1 -1 -0 -3 -1 -2 -3 -4 -3 1 2 3 -2 -2 1 0 -1 0 1 1 5 -0 -0 4 -2 -2 -8 6 -4 12 -5 -15 9
-1 -1 -2 -0 -0 -0 -0 -1 0 1 -0 -2 -1 0 0 1 2 1 1 1 -2 -2 -3 -4 -5 -1 2 0 -0 -2 -1 1 -0 0 3 2 0 -1 0 -1 -0 -0 -8 2 -2 -12 -4
-0 0 1 -0 -0 -0 -0 0 1 -1 -0 1 -1 -2 -0 -1 0 3 2 2 3 -0 -1 -6 -1 -6 -3 3 2 -3 3 1 -5 -1 3 4 0 3 -2 -2 -0 3 3 2 -19 2 -27
1 -2 0 1 0 -1 -1 1 0 0 -2 -1 -0 1 -3 1 -0 2 -0 -0 4 4 2 -0 -0 -3 -4 0 2 -0 -1 -1 -2 -0 3 10 19 0 4 10 -2 -2 -6 3 1 -4 -3
1 1 -1 -1 -0 0 -0 -1 -0 -0 1 1 -0 -0 -1 -1 2 -1 0 0 -0 -3 2 5 -0 -5 -3 -1 -1 -1 -0 -5 -2 0 0 1 2 19 5 -3 -9 2 3 8 -7 1 5
1 1 1 2 1 1 1 1 -1 -1 0 1 3 1 -0 -4 -4 -1 2 0 -1 -1 1 5 6 0 -2 -2 0 -3 -4 -2 4 -0 0 -3 -1 0 1 -2 3 6 1 -10 -1 -1 8
-1 -0 -0 0 1 -0 -1 -0 -0 -0 -1 1 0 -2 1 3 1 -1 -0 -0 2 -0 -2 -4 3 1 -4 -1 0 -1 -3 -2 -0 1 -2 2 -4 -4 3 -2 1 -6 0 -3 -7 18 -2
-0 2 0 1 2 1 1 1 3 1 1 1 3 -4 1 1 -4 1 -0 -4 -1 0 -1 3 2 -0 -0 -4 3 -2 -6 -1 -1 5 -5 3 -0 -5 -2 2 6 2 -4 2 -1 11 -5
3 3 2 1 2 1 -1 -6 0 -1 -0 -5 -1 -6 1 -1 -1 -1 2 5 -2 0 0 -2 1 0 1 -4 2 -5 -4 -2 1 -0 4 -0 12 10 6 8 6 1 -0 -4 -6 15 -3
3 -0 -2 -4 -6 -1 3 1 -0 -3 -1 1 2 -3 -5 -6 -0 -3 0 -1 1 0 -3 -2 -2 -1 -0 -4 0 -1 -3 -1 -5 -4 0 1 -5 -2 10 1 9 -1 8 -4 10 -1 4
-3 -2 -1 -0 0 -1 -1 1 -1 0 -0 -1 -1 -1 1 -0 1 4 3 -8 1 -1 -5 -1 -1 -2 -0 -3 0 -0 2 -2 -3 -7 -4 -2 -5 6 -1 4 16 10 29 11 1 -1 -4
2 -0 -1 -3 -2 -2 3 -0 0 2 -1 -1 -0 0 1 3 1 2 -7 -0 -3 -1 2 2 -0 3 -0 -0 -2 -1 -1 1 2 -1 -4 -0 -2 -9 -1 -1 -8 -2 -7 -2 -3 -2 -2
-1 0 1 2 1 -2 0 0 -2 -2 -1 -2 -1 -1 0 1 0 -3 1 1 -1 -0 -0 4 -11 0 2 3 3 -1 0 -4 -0 -1 2 -1 -4 6 -1 1 -4 -3 -3 -0 -2 -1 -1
3 -4 1 -2 -1 -1 -1 -1 -3 -0 0 1 -1 -1 -0 -1 0 1 2 -2 -1 1 -0 -2 -2 -6 2 3 -2 2 3 2 -1 -2 5 2 -3 -9 -7 2 -1 -10 2 5 1 -1 -2
-0 -1 1 3 0 -1 -5 -2 -2 -0 -2 -1 -2 -1 -0 1 -0 2 1 0 -0 0 -0 1 -3 -1 -11 -3 -2 3 -3 9 4 1 -5 4 -2 3 -12 -4 -3 -3 -3 2 -1 -2 -0
-3 4 -2 -1 -1 -1 -4 -1 -5 0 -1 -0 -2 -2 0 -3 -1 0 -0 3 1 3 1 1 1 1 -2 -6 -9 3 -3 -2 5 -1 5 -5 6 0 5 -2 4 3 -2 -1 0 -0 -0
-2 -1 -1 1 1 0 -1 0 -0 -1 0 0 2 1 -0 4 -0 0 1 1 -0 0 4 1 -2 4 1 0 -4 -4 -1 2 1 3 1 4 -2 -1 -5 1 -2 0 5 4 -0 -1 1
-1 -0 1 2 1 2 -1 -1 2 -3 -5 -3 1 -2 0 1 2 2 1 2 0 -0 1 -1 0 -0 -1 -0 -2 -0 1 -3 1 0 4 0 6 -1 -0 0 -2 -2 -4 0 0 5 -1
1 1 1 4 4 1 0 -2 1 2 -3 -4 -3 -4 -2 -1 0 -1 0 -2 2 2 -0 2 4 5 4 -3 -0 -5 -3 3 3 2 0 5 -1 -1 -5 1 2 -0 -1 2 8 3 -8
4 2 -2 -0 -1 -2 0 0 1 -2 4 2 -5 -0 -0 -5 0 3 4 1 2 1 0 -2 -0 1 6 2 2 -4 -2 2 1 -1 4 1 -4 4 -1 -2 3 2 1 -1 1 1 -0
-2 5 3 1 0 1 -1 -3 -2 -1 1 1 8 -6 -2 -3 1 1 -3 -3 -0 2 6 4 -3 3 0 -9 5 -4 2 3 3 -2 1 1 -3 -4 -12 5 1 -6 3 5 -3 -1 4
-0 -3 -3 -1 -1 -2 -2 0 -0 -1 -2 12 6 -0 2 9 1 -0 -1 -3 -0 2 -1 2 6 1 -1 2 7 2 -0 4 1 3 1 4 0 2 -6 -1 2 2 -16 -15 2 -1 3
-0 3 -1 1 4 2 2 4 3 -2 2 3 -3 6 3 -7 1 -2 -2 -1 5 -1 -0 -2 -3 -0 -2 1 0 1 -0 0 -2 3 4 -0 3 5 -1 2 1 -6 5 -1 -2 4 1
2 4 2 -0 2 4 5 4 4 2 -3 -2 22 -5 2 -7 9 7 6 -5 -4 9 -1 1 5 1 -1 4 4 -3 -3 -3 -5 -0 2 6 7 -2 -1 1 -10 -4 3 1 1 4 4
-2 6 -1 -1 0 1 1 0 1 3 5 3 -1 -2 1 16 -8 2 2 1 -4 -1 -3 -6 2 -0 1 6 4 -0 -4 -0 -1 1 2 3 8 8 2 3 -2 4 2 0 -5 -4 2
-2 -2 -2 4 3 1 2 1 1 0 1 1 -1 -3 -3 -5 -1 3 4 3 15 -3 7 -4 2 -3 10 2 1 -3 -6 -1 -5 -1 0 0 2 -4 2 1 -6 -10 7 -1 5 -5 1
-0 2 0 -3 1 2 1 2 1 0 1 1 3 4 2 -9 -3 4 9 6 1 11 3 -1 22 -7 -1 3 -2 -4 -2 1 -2 -2 -2 2 -2 -4 4 2 -16 2 8 13 5 0 2
-2 -2 -1 -0 0 1 -1 -1 -1 -0 3 2 2 3 5 -1 -12 0 8 3 6 14 8 1 6 4 17 -3 -1 1 -2 -1 5 -5 1 -9 -6 -6 -9 -3 1 4 3 5 -0 1 1
Height
3135 3132 3129 3127 3124 3121 3119 3116 3112 3108 3104 3100 3096 3092 3088 3085 3081 3077 3073 3069 3067 3064 3060 3056 3052 3048 3045 3043 3041 3036 3033 3030 3028 3026 3024 3022 3021 3021 3021 3022 3023 3022 3022 3025 3025 3032 3034
3134 3131 3129 3126 3123 3120 3117 3114 3111 3107 3103 3099 3095 3091 3087 3083 3080 3076 3072 3068 3065 3062 3058 3053 3049 3044 3041 3039 3035 3031 3028 3026 3023 3020 3017 3016 3016 3015 3014 3015 3016 3016 3016 3016 3019 3026 3030
3133 3130 3127 3124 3122 3119 3115 3112 3109 3105 3101 3097 3093 3089 3085 3080 3077 3073 3070 3067 3062 3060 3056 3051 3047 3043 3039 3036 3030 3026 3023 3020 3018 3014 3012 3011 3012 3012 3012 3012 3012 3012 3011 3007 3010 3020 3018
3132 3130 3126 3124 3120 3117 3115 3111 3107 3103 3099 3095 3091 3087 3083 3079 3074 3071 3068 3065 3061 3057 3053 3049 3045 3041 3037 3032 3027 3023 3019 3015 3012 3011 3008 3007 3008 3008 3008 3010 3010 3009 3007 3004 3001 3008 3014
3130 3127 3125 3122 3118 3115 3112 3108 3105 3101 3097 3093 3088 3084 3080 3077 3073 3069 3065 3062 3058 3054 3050 3047 3043 3037 3033 3029 3024 3019 3014 3011 3009 3007 3003 3003 3003 3004 3006 3006 3007 3006 3002 2999 3004 3009 3018
3127 3125 3122 3119 3115 3112 3108 3104 3101 3097 3094 3089 3086 3081 3076 3073 3069 3065 3060 3058 3054 3052 3048 3044 3040 3037 3032 3027 3020 3015 3011 3008 3006 3004 3001 3000 3002 3000 3002 3004 3003 3003 3001 2997 3001 3005 3008
3124 3122 3119 3115 3111 3107 3103 3100 3096 3093 3090 3086 3081 3077 3073 3069 3066 3062 3058 3055 3054 3051 3046 3043 3039 3034 3029 3025 3019 3013 3010 3007 3005 3005 3004 3002 3001 3000 3002 3001 3000 3000 3000 2996 2993 3001 3006
3121 3118 3115 3111 3107 3104 3100 3096 3092 3088 3084 3081 3077 3074 3069 3066 3061 3060 3055 3052 3047 3048 3043 3039 3036 3033 3028 3024 3019 3014 3011 3008 3005 3004 3004 3003 3000 3001 2999 2998 2999 2999 3000 3001 3003 3001 3007
3117 3114 3111 3107 3103 3099 3095 3092 3088 3083 3079 3076 3072 3069 3065 3062 3059 3056 3051 3049 3045 3041 3039 3036 3034 3032 3027 3025 3019 3015 3013 3010 3007 3005 3004 3001 2999 2998 2996 2995 2994 2996 2996 2997 3001 3001 3004
3113 3109 3106 3103 3099 3096 3091 3087 3081 3076 3071 3067 3066 3064 3061 3058 3057 3053 3049 3045 3044 3039 3035 3036 3033 3031 3027 3024 3020 3017 3014 3012 3008 3007 3004 2999 2997 2998 2996 2994 2997 2993 2990 2995 2999 3000 3004
3108 3104 3101 3098 3093 3088 3085 3080 3075 3070 3066 3061 3058 3056 3054 3053 3052 3050 3048 3044 3042 3038 3037 3036 3032 3030 3026 3025 3022 3017 3016 3013 3010 3008 3008 3005 3000 2996 2992 2989 2991 2988 2984 2990 2994 3003 3006
3103 3100 3096 3092 3088 3085 3080 3076 3071 3065 3061 3057 3054 3052 3050 3050 3047 3045 3044 3044 3040 3039 3033 3033 3032 3029 3027 3024 3021 3017 3015 3014 3012 3010 3007 3005 3002 2997 2997 2993 2991 2986 2988 2994 2998 3000 3004
3098 3095 3092 3088 3085 3081 3077 3072 3067 3062 3059 3055 3051 3049 3047 3046 3045 3042 3042 3040 3039 3034 3034 3034 3031 3028 3026 3023 3020 3017 3014 3013 3013 3011 3008 3006 3005 3002 2996 2996 2994 2995 2996 2999 3004 3003 3005
3095 3092 3089 3085 3081 3077 3073 3069 3064 3059 3055 3052 3049 3046 3044 3042 3041 3039 3038 3038 3035 3031 3030 3030 3029 3027 3024 3023 3019 3017 3014 3012 3011 3011 3008 3004 3001 3005 3003 3003 3002 3000 3000 3000 3003 3002 3001
3091 3088 3084 3080 3075 3072 3069 3065 3060 3056 3052 3049 3045 3042 3038 3036 3035 3035 3036 3034 3032 3030 3029 3027 3026 3024 3023 3021 3021 3016 3012 3011 3010 3011 3011 3006 3002 3002 3001 3002 3005 3002 3001 3002 2999 3000 2998
3086 3083 3079 3074 3070 3067 3064 3061 3057 3054 3048 3044 3041 3037 3034 3032 3032 3032 3032 3030 3029 3028 3026 3025 3023 3022 3022 3019 3018 3017 3013 3009 3007 3008 3009 3006 3004 3000 3001 3002 3004 3004 3004 3003 3002 3005 3002
3082 3077 3074 3070 3065 3061 3058 3055 3051 3049 3044 3040 3037 3033 3031 3030 3029 3029 3028 3027 3025 3024 3023 3022 3020 3018 3017 3017 3017 3013 3012 3009 3006 3005 3006 3005 3003 3000 3000 2999 2998 2998 3000 3000 3000 3003 3002
3076 3072 3068 3064 3060 3055 3052 3049 3046 3043 3041 3038 3033 3029 3027 3025 3026 3023 3022 3022 3022 3020 3019 3018 3017 3016 3014 3013 3010 3008 3006 3005 3003 3003 3003 3003 3001 2997 2995 2994 2994 2995 2996 2997 3000 3000 3001
3069 3065 3061 3058 3054 3051 3047 3043 3039 3037 3036 3034 3030 3027 3024 3022 3021 3019 3019 3019 3018 3016 3015 3014 3014 3013 3012 3011 3010 3004 3001 3001 2999 2999 2999 2998 2996 2996 2994 2995 2994 2993 2994 2997 2999 2999 2994
3062 3059 3056 3052 3049 3046 3043 3039 3036 3032 3031 3031 3029 3026 3023 3020 3018 3017 3016 3016 3015 3014 3012 3011 3009 3007 3005 3005 3005 3001 2999 2997 2996 2995 2995 2994 2992 2991 2990 2992 2992 2992 2993 2995 2997 2998 2995
3055 3052 3049 3046 3043 3041 3038 3035 3032 3029 3029 3027 3025 3024 3022 3019 3017 3015 3013 3011 3009 3008 3004 3004 3002 3004 3003 3000 2998 2996 2994 2992 2990 2989 2989 2990 2986 2985 2985 2986 2986 2987 2988 2989 2989 2989 2988
3048 3045 3042 3040 3037 3035 3032 3030 3028 3026 3024 3023 3021 3019 3014 3012 3012 3011 3009 3005 3004 3002 3000 2997 2996 2998 2997 2995 2995 2991 2989 2987 2985 2983 2982 2983 2981 2981 2977 2980 2979 2977 2980 2983 2983 2982 2982
3041 3039 3037 3034 3031 3029 3026 3024 3022 3021 3019 3016 3013 3012 3008 3002 3002 3003 3003 3002 2999 2997 2995 2994 2993 2991 2990 2990 2987 2985 2984 2982 2979 2978 2978 2979 2977 2977 2973 2974 2973 2969 2967 2970 2971 2973 2976
3034 3032 3029 3027 3025 3022 3019 3017 3016 3015 3012 3010 3008 3006 3001 2991 2991 2993 2994 2994 2994 2993 2989 2987 2986 2983 2982 2981 2980 2978 2977 2975 2973 2972 2971 2971 2973 2974 2970 2971 2969 2960 2959 2962 2964 2966 2969
3028 3026 3023 3020 3017 3014 3011 3010 3008 3007 3004 3002 3001 2999 2994 2983 2984 2984 2985 2984 2986 2984 2980 2979 2978 2976 2974 2973 2973 2971 2968 2967 2964 2962 2962 2964 2967 2968 2968 2964 2958 2956 2956 2957 2958 2961 2961
3023 3018 3014 3011 3008 3005 3003 3001 2999 2997 2995 2992 2992 2992 2989 2981 2974 2976 2976 2975 2974 2975 2973 2971 2970 2968 2968 2966 2965 2965 2964 2961 2960 2957 2954 2956 2960 2963 2963 2962 2957 2951 2949 2951 2954 2954 2954
3013 3010 3007 3003 3001 2998 2996 2994 2991 2989 2986 2984 2983 2982 2980 2972 2967 2969 2966 2967 2966 2965 2963 2962 2961 2959 2960 2958 2958 2958 2958 2957 2956 2955 2952 2952 2953 2953 2957 2957 2949 2950 2949 2948 2953 2955 2950
3008 3004 3001 2999 2997 2994 2991 2988 2985 2982 2979 2977 2975 2972 2970 2962 2958 2958 2958 2957 2959 2958 2957 2955 2953 2952 2952 2951 2951 2951 2951 2951 2949 2948 2947 2948 2948 2949 2952 2954 2951 2944 2945 2948 2948 2946 2948
3004 3001 2998 2994 2991 2988 2985 2982 2978 2975 2971 2967 2965 2963 2960 2954 2949 2949 2945 2946 2948 2951 2950 2945 2945 2946 2944 2944 2944 2943 2944 2943 2943 2942 2941 2944 2943 2943 2945 2942 2943 2943 2943 2943 2943 2944 2945